Wind_Speed
56 55 55 55 56 56 55 55 55 56 56 55 55 55 55 55 54 54 54 55 55 56 56 56 56 56 56 56 56 55 55 55 55 55 55 56 56 56 57 57 58 58 59 59 59 60 60 61 62 63 64 65 65 65 66 66 66 67 67 67 67 67 67 67 67 67 67 67 67 67 66 65 64 63 62 61 60 59 59 58 57 56 55 55 55 55 54
58 58 58 58 58 58 58 58 57 57 57 57 57 57 57 57 57 57 57 57 57 57 57 57 58 58 58 58 57 57 57 57 57 57 58 58 58 59 59 60 60 61 61 62 62 62 63 64 64 65 66 67 68 69 69 69 69 69 69 69 69 68 68 68 68 68 68 68 68 68 67 66 65 63 62 61 60 60 59 59 58 58 57 57 57 56 55
60 60 60 61 61 61 61 60 59 59 59 59 59 59 59 59 58 58 59 59 59 59 59 59 59 60 60 60 60 60 60 60 61 61 61 61 61 62 62 62 63 63 64 64 65 65 66 67 67 68 69 70 71 71 72 72 72 72 72 72 71 71 71 71 70 70 70 70 70 69 67 66 65 64 63 63 62 61 61 60 60 59 59 59 59 59 58
60 60 62 63 63 64 63 62 61 61 61 60 61 61 61 61 60 61 61 61 61 61 61 61 62 63 63 63 63 63 63 64 65 65 65 65 65 65 65 66 66 66 67 67 68 69 69 70 71 72 73 73 74 75 75 75 75 75 75 75 74 74 73 73 72 72 72 71 71 70 69 67 66 65 65 64 63 63 62 62 62 62 61 62 63 63 62
58 60 62 63 64 63 63 62 62 62 62 62 63 63 63 62 62 63 63 63 64 64 64 64 65 65 66 66 67 67 67 67 68 68 69 69 69 69 69 69 70 70 70 71 71 72 73 74 75 75 76 77 77 77 78 78 78 78 77 76 76 75 74 73 73 73 73 72 72 71 70 69 67 67 66 65 64 64 64 64 64 64 63 64 65 65 64
57 59 60 61 60 60 60 60 61 61 62 62 63 63 63 63 62 62 62 62 62 63 63 63 65 66 66 67 68 69 69 70 70 70 70 70 70 71 71 71 71 71 71 72 72 73 74 75 76 77 77 78 78 78 78 78 78 78 77 76 75 75 74 74 74 74 74 73 73 72 72 70 69 68 67 65 64 63 63 65 66 65 65 67 67 66 65
57 57 58 58 57 57 58 58 57 58 59 60 60 60 60 60 60 60 59 58 58 58 57 59 61 62 62 63 65 67 67 67 67 66 67 69 69 70 70 70 69 69 68 68 68 69 69 70 71 73 74 75 75 75 75 76 76 76 75 75 75 75 75 74 74 74 74 74 73 73 72 71 70 69 68 67 66 65 65 68 69 68 68 69 68 67 67
57 57 57 56 57 58 58 57 56 56 57 57 58 58 58 58 58 57 57 56 56 56 56 57 58 58 58 59 61 62 61 60 59 59 61 64 65 65 65 65 65 64 64 64 64 64 65 66 67 68 69 70 71 70 70 70 71 71 71 71 72 72 72 73 73 72 72 72 72 72 71 70 70 69 69 68 68 69 70 71 71 70 70 70 70 70 70
59 59 58 58 58 59 58 57 57 58 58 58 58 58 58 58 57 57 58 57 58 58 58 59 58 58 58 58 59 59 57 57 56 56 58 60 61 61 61 62 62 62 62 62 63 64 64 65 66 66 67 68 68 67 67 67 67 67 67 67 67 68 68 69 69 69 69 69 69 69 68 67 67 67 67 67 67 67 68 68 68 68 69 70 71 71 72
62 62 62 61 60 59 59 59 59 59 60 60 60 60 60 59 58 59 60 60 61 60 60 60 60 59 59 59 59 59 58 58 57 57 57 59 60 60 60 60 60 60 61 61 63 64 65 66 67 67 68 68 68 67 67 66 66 66 65 65 65 65 65 66 66 66 66 66 66 66 65 64 64 64 64 64 64 64 64 64 64 65 66 67 69 70 70
65 65 64 63 62 61 61 61 61 61 61 62 62 63 62 61 61 62 63 63 63 62 62 61 61 61 60 60 60 60 59 59 59 59 59 59 60 60 60 60 60 61 61 62 63 64 65 66 67 68 69 69 70 69 69 68 68 67 66 65 65 64 65 65 65 65 65 65 65 65 64 63 62 62 61 62 62 62 62 61 61 62 63 64 66 67 68
67 67 67 66 64 63 63 63 64 64 65 65 65 64 62 63 65 66 66 65 65 65 65 65 64 64 63 63 62 62 62 62 62 62 62 62 62 62 62 62 63 63 63 64 65 66 67 67 68 69 70 70 71 71 71 71 70 69 68 67 67 67 66 67 67 67 67 67 66 66 65 64 63 62 61 61 61 61 61 61 61 61 61 62 64 65 66
69 69 69 68 66 65 65 67 68 68 69 69 67 66 66 67 69 69 69 68 68 68 68 68 68 68 68 67 67 67 67 67 67 67 66 66 66 66 66 66 66 66 67 67 68 68 69 70 70 71 71 72 72 73 73 73 73 72 71 70 70 70 69 69 70 70 70 70 70 70 69 67 66 65 64 63 63 62 61 61 61 62 61 61 62 63 64
71 71 70 69 68 67 67 69 70 71 71 71 70 70 70 71 71 71 71 71 71 71 71 71 71 72 72 72 72 72 72 72 72 72 71 71 71 71 70 70 70 70 70 71 71 71 71 72 72 73 73 74 74 75 75 76 76 75 75 74 73 73 73 72 73 74 74 74 74 74 73 73 71 69 68 67 66 65 64 63 64 64 63 62 62 63 63
71 72 72 71 70 69 70 71 72 72 72 72 72 72 73 73 74 74 74 74 74 75 75 75 75 75 76 76 75 75 75 75 75 76 76 75 75 75 75 75 75 75 75 75 75 74 74 74 74 74 74 74 75 76 77 78 79 78 78 77 77 76 76 76 76 76 77 77 77 77 77 77 76 75 73 72 71 70 69 68 67 67 66 65 65 65 64
71 72 72 72 71 71 72 73 73 74 74 74 74 74 74 75 75 76 76 77 77 77 78 78 78 79 79 79 78 78 78 78 78 79 79 79 79 79 79 79 79 78 78 78 78 77 76 75 75 74 74 75 76 77 78 79 80 80 80 80 80 79 79 79 79 79 80 80 81 81 81 81 81 80 78 77 76 75 74 72 71 72 71 70 68 68 68
70 71 71 71 71 72 72 73 74 75 75 75 76 76 77 77 77 77 78 79 79 79 80 81 81 81 81 81 81 81 81 81 82 82 82 82 82 82 82 82 81 81 80 80 79 79 78 77 76 75 75 74 75 76 78 79 79 79 79 79 80 80 81 81 81 81 82 82 83 84 84 84 85 84 84 82 81 80 79 77 77 76 75 74 73 72 71
68 69 70 70 70 71 72 72 73 74 75 76 77 77 78 78 79 79 80 81 81 82 82 83 83 84 84 84 84 84 84 85 85 85 85 85 85 85 84 84 84 84 83 83 83 83 83 82 81 78 77 75 74 75 76 77 77 77 77 77 78 78 79 80 81 81 82 82 84 85 86 86 87 87 87 87 86 84 82 81 81 80 79 78 77 76 74
67 68 68 69 69 69 70 71 72 73 74 75 76 77 78 79 79 80 81 82 83 83 84 84 85 85 86 86 86 86 86 86 86 86 86 86 87 86 86 86 86 85 85 85 86 86 86 86 85 83 81 78 76 75 75 76 76 76 76 76 77 78 79 80 80 81 81 81 82 84 85 86 87 88 88 88 88 88 86 85 84 83 82 82 80 79 77
66 67 67 67 68 68 69 69 70 70 72 73 74 75 76 78 79 80 81 82 83 84 84 85 85 86 86 86 86 87 87 87 87 87 86 86 87 87 87 87 87 87 87 87 87 87 87 86 86 84 83 82 80 78 77 77 77 77 77 78 78 79 80 81 82 83 83 82 82 83 83 84 86 87 87 87 87 88 87 87 86 86 84 83 82 81 79
64 65 65 66 67 68 68 69 70 70 71 72 73 73 74 75 76 78 79 80 81 81 82 83 83 84 84 84 85 86 86 86 86 86 85 85 85 85 86 86 86 87 87 87 87 87 86 86 85 84 84 83 81 78 77 76 76 76 76 78 79 80 81 82 83 84 84 84 84 83 83 83 84 85 86 86 86 87 87 87 87 87 86 85 85 83 81
59 61 62 63 65 66 67 68 69 70 71 71 72 73 74 74 75 75 76 77 77 78 79 80 81 81 82 82 83 84 84 84 84 84 84 84 84 84 84 85 85 86 86 85 85 85 85 85 84 84 83 82 80 77 75 74 73 72 72 73 74 75 77 79 81 82 83 83 83 83 82 82 83 83 84 84 85 86 87 87 87 87 87 86 85 84 81
54 55 57 58 59 61 62 64 65 66 68 69 70 71 72 73 73 74 74 74 75 75 76 77 78 79 80 81 81 82 82 82 82 82 82 82 82 83 83 83 83 83 83 82 82 82 82 81 81 81 80 78 77 75 74 72 70 68 67 67 68 69 71 72 74 76 77 78 78 79 79 79 80 81 82 82 83 84 85 85 86 86 85 84 84 82 80
50 51 52 53 54 55 56 58 59 61 62 64 65 66 67 68 69 69 70 71 71 71 72 72 73 74 75 76 76 76 76 77 77 76 76 77 77 77 77 77 77 77 77 76 76 76 75 75 75 74 74 73 72 71 70 69 68 66 65 64 64 65 66 66 67 68 69 69 70 71 73 75 75 76 77 79 82 82 81 81 83 83 82 82 81 80 77
46 47 48 49 50 51 52 53 54 55 56 57 58 59 60 61 62 63 63 64 64 65 65 65 66 67 67 68 67 68 68 68 68 68 68 68 69 69 69 69 69 69 69 69 69 68 68 68 68 69 69 68 67 67 66 65 64 64 63 62 61 62 63 63 63 63 64 64 63 63 64 67 69 70 71 73 76 78 78 77 79 80 79 78 77 75 71
42 43 45 45 46 47 48 49 50 51 52 52 53 54 55 56 56 57 58 58 59 59 59 60 60 61 61 61 61 61 61 61 62 62 62 62 62 63 63 63 63 63 63 63 63 63 63 64 64 65 64 64 63 62 62 61 61 61 61 60 59 60 60 60 61 61 61 61 61 59 59 60 63 65 66 67 70 72 72 72 73 76 75 74 72 69 65
39 40 41 42 43 44 45 46 46 47 48 49 49 50 51 52 52 53 54 54 55 55 56 56 56 57 57 57 57 57 57 58 58 59 58 58 58 58 59 59 59 59 59 59 59 60 60 61 61 60 60 59 58 58 58 58 58 58 57 57 56 56 57 57 58 58 59 59 58 57 56 57 59 62 63 63 64 65 66 67 68 69 69 68 66 64 61
38 38 39 40 41 42 42 43 43 44 45 45 46 47 47 48 49 50 50 51 51 51 52 52 52 53 53 53 53 54 54 55 55 55 55 55 56 55 55 55 55 55 56 56 57 57 57 57 57 57 56 55 55 54 54 54 54 54 54 53 53 52 52 52 53 54 55 55 56 55 55 55 57 59 60 60 61 62 63 64 64 64 63 62 61 60 59
37 38 38 39 39 40 40 40 41 41 42 43 43 44 44 45 46 46 47 47 48 48 48 49 49 49 49 49 50 51 51 52 52 52 52 53 53 52 51 51 52 53 53 53 54 54 54 54 54 53 52 52 52 52 51 51 51 51 51 51 50 49 48 48 47 48 50 51 52 53 53 53 54 55 56 57 58 58 60 61 61 60 58 57 56 56 57
36 37 37 38 38 39 39 39 40 40 40 41 41 41 42 43 43 44 44 45 45 45 45 46 46 46 46 46 47 48 49 49 49 49 50 50 49 48 48 49 49 50 51 51 52 52 52 51 51 50 50 50 50 49 49 48 48 48 48 48 47 46 45 44 44 44 45 46 47 48 49 50 51 52 53 54 54 55 56 57 58 57 55 53 54 55 58
35 35 36 37 38 38 38 39 39 39 39 39 39 40 40 41 41 42 42 42 42 42 42 43 43 43 43 44 44 45 46 47 47 47 46 46 45 45 45 46 47 47 48 48 48 49 49 48 48 47 48 48 47 46 46 45 45 45 45 45 44 43 42 41 41 41 41 42 43 44 46 47 48 48 50 51 51 52 53 53 54 54 52 51 52 55 58
33 34 34 36 37 37 38 38 39 39 39 38 38 39 39 40 40 40 40 40 40 40 40 40 40 41 41 41 42 43 44 44 44 43 43 42 41 41 42 43 44 44 45 45 45 46 46 45 45 44 44 44 43 43 42 42 42 42 42 41 40 40 39 39 38 38 38 38 39 41 42 43 43 44 46 48 49 50 51 51 51 51 50 50 51 55 58
31 32 33 34 35 36 36 37 38 38 38 37 38 38 38 38 38 38 39 39 38 38 38 38 38 39 38 39 40 40 41 41 41 40 39 39 38 38 39 40 41 41 42 42 42 43 42 42 41 41 41 40 40 39 39 39 39 39 38 37 37 36 36 36 36 36 36 35 36 37 39 39 39 40 42 44 46 47 48 48 49 49 49 50 51 53 55
29 30 31 32 33 34 34 35 35 36 36 36 36 36 36 36 36 37 37 37 36 36 36 36 36 36 36 36 37 37 37 37 37 36 36 36 35 35 36 37 38 39 40 39 39 39 39 39 38 38 38 37 37 36 36 36 36 36 35 34 34 33 33 32 32 33 33 33 33 34 35 35 35 36 38 41 43 44 44 45 47 47 48 48 49 49 50
28 29 29 31 31 32 33 33 33 33 33 34 34 35 34 35 35 35 35 35 34 34 34 34 34 34 34 34 34 34 34 34 34 33 33 33 33 33 34 34 35 36 37 37 36 36 36 36 36 35 35 34 34 34 33 33 32 32 32 31 31 30 30 29 29 29 30 30 31 31 31 31 32 33 34 36 38 39 40 43 44 45 46 46 46 46 46
28 28 29 30 30 31 31 32 32 32 32 32 32 33 32 33 33 33 33 32 32 32 32 32 32 32 32 32 32 32 31 31 31 31 31 31 31 31 32 32 32 33 34 34 34 34 34 34 33 33 32 32 31 31 30 30 29 30 29 28 28 28 28 27 26 26 26 27 28 28 28 28 29 30 31 32 34 35 37 40 41 42 43 43 43 43 42
28 28 29 29 29 29 30 30 30 30 30 30 31 31 30 31 31 31 31 31 30 30 31 30 30 30 30 30 30 30 29 29 29 30 30 30 30 30 30 30 30 30 31 31 31 31 31 31 31 31 30 30 29 29 28 27 27 27 27 26 25 25 25 25 24 24 24 24 24 25 26 26 27 27 28 29 31 32 34 36 38 39 39 39 39 38 38
28 28 29 29 29 29 29 29 29 29 29 29 29 29 29 29 29 30 30 29 29 29 29 29 28 28 28 28 28 28 28 28 28 28 29 29 28 28 28 28 27 28 28 28 29 29 30 29 29 29 28 28 28 26 26 25 24 24 25 24 23 22 22 22 22 22 22 21 22 22 23 24 24 25 26 27 28 30 31 32 33 34 35 35 35 35 35
27 28 28 28 28 28 28 28 28 28 28 28 28 27 27 28 28 28 28 28 28 27 27 27 26 26 27 26 26 26 26 26 27 27 27 27 27 27 26 26 26 26 26 26 26 27 28 28 27 27 27 27 26 25 24 23 22 21 22 22 21 20 19 19 19 19 20 20 20 20 21 21 22 23 24 25 26 27 28 29 30 31 32 32 33 33 34
26 27 27 27 27 27 27 27 27 27 27 27 27 26 26 26 27 27 27 27 27 26 26 26 25 25 25 25 25 25 25 25 25 25 26 26 26 25 25 25 25 24 24 24 24 25 25 26 26 26 25 25 25 24 24 23 21 19 19 19 19 18 17 17 17 17 17 17 18 18 19 20 21 22 22 23 24 25 27 28 28 29 30 31 31 32 33
26 26 26 26 26 26 26 26 26 26 26 26 26 25 25 25 26 25 25 26 26 25 25 25 24 24 24 24 24 24 24 24 24 24 24 24 24 24 23 23 23 23 23 23 23 23 23 24 24 24 24 24 24 24 23 23 21 20 18 18 18 17 16 16 15 15 16 16 16 16 17 18 19 20 21 21 22 24 25 26 27 28 29 30 30 31 31
26 26 26 26 25 25 26 26 26 26 26 26 25 25 25 25 25 24 24 24 24 24 24 24 24 23 23 23 23 23 23 23 24 24 23 23 23 23 23 22 22 22 22 22 22 22 22 22 23 23 23 23 23 23 22 22 22 21 19 17 16 16 16 15 14 14 14 14 14 15 15 16 17 18 19 20 21 21 22 23 25 26 27 27 28 28 29
27 27 26 26 25 25 25 26 25 25 25 25 25 24 24 24 24 24 23 23 23 23 24 24 23 23 22 22 22 23 23 23 23 23 23 22 22 22 22 22 22 22 22 21 21 22 22 22 22 22 22 22 23 23 22 22 22 21 19 17 15 15 15 14 14 14 13 13 13 13 14 14 15 17 18 18 19 20 21 22 23 23 24 25 26 27 27
27 27 27 26 26 25 26 26 26 25 25 25 24 24 24 24 24 23 23 23 22 22 23 23 23 23 22 22 22 22 23 23 23 23 22 22 22 21 21 21 21 21 21 21 21 22 22 22 22 22 22 22 22 22 22 21 21 21 20 18 16 14 13 13 13 13 13 13 13 13 13 14 14 15 16 17 18 20 21 22 23 24 24 25 26 27 28
26 27 27 26 25 25 25 26 25 25 25 25 25 24 24 24 24 23 23 23 22 22 22 22 22 22 22 21 21 22 22 23 23 23 23 22 22 22 21 21 21 20 20 21 21 22 22 23 23 23 22 22 22 22 21 21 21 21 20 19 17 15 13 13 12 12 12 12 13 13 13 14 14 15 16 16 17 19 21 22 23 24 25 25 26 27 27
26 26 27 26 25 25 25 25 25 25 25 25 25 25 24 24 24 24 23 23 23 22 22 21 21 21 21 21 21 22 22 22 23 23 23 23 22 22 22 22 21 20 20 20 21 21 22 23 23 24 23 23 22 22 22 21 21 21 21 20 19 17 15 14 13 13 12 12 13 13 14 14 15 16 16 17 17 18 20 22 23 24 25 26 27 27 28
27 27 27 26 26 25 25 25 25 25 25 26 26 25 25 24 24 24 24 23 23 22 22 22 21 21 21 21 21 22 22 22 23 23 23 23 23 23 23 22 22 21 21 20 20 20 21 22 23 24 24 24 23 23 23 22 22 22 21 21 20 19 18 16 15 14 14 13 13 14 14 15 16 16 17 18 18 19 19 21 22 23 25 26 27 28 28
28 28 27 27 26 26 25 25 25 25 25 26 26 26 25 25 25 25 24 24 23 23 22 22 22 21 20 20 21 21 21 22 23 23 24 24 24 24 24 23 23 22 22 21 20 20 20 21 22 24 24 25 25 24 24 23 23 23 23 22 22 21 20 19 18 17 16 15 15 15 15 16 17 17 18 19 20 20 21 21 22 23 24 25 26 27 28
29 28 28 27 27 26 26 25 25 25 26 26 26 26 26 26 25 25 25 25 24 23 23 23 23 22 21 21 21 21 21 21 22 23 23 24 25 25 25 25 24 23 23 22 22 21 21 21 22 23 24 25 26 26 25 25 24 24 24 24 24 23 23 22 21 20 19 18 18 18 17 17 18 19 20 21 22 22 23 23 23 24 24 25 26 27 28
27 28 28 28 27 27 26 26 26 26 26 27 27 27 27 27 26 26 26 26 25 24 23 23 23 23 22 22 22 22 22 22 22 22 23 24 25 26 26 26 25 25 24 24 23 23 23 22 23 23 24 25 26 27 27 26 26 26 25 25 25 25 25 25 24 23 22 22 21 21 20 20 20 20 21 22 23 24 24 25 25 26 26 27 27 28 29
27 27 28 28 28 27 26 26 26 26 27 27 27 27 27 27 27 27 27 27 25 24 24 24 24 24 23 23 23 23 22 22 22 22 23 23 25 26 26 27 27 26 26 25 25 24 24 24 24 24 24 25 26 27 27 28 27 27 27 27 27 26 26 26 26 26 26 25 25 24 23 23 23 23 23 23 24 25 26 26 27 27 28 29 29 29 30
27 27 27 28 28 28 27 26 25 26 27 27 28 28 28 27 27 28 28 26 25 24 25 25 25 25 25 24 24 24 23 23 22 22 23 23 24 25 27 27 28 28 27 27 26 26 26 25 25 25 25 25 25 26 27 28 28 28 28 28 28 27 27 27 27 27 28 28 28 27 27 27 26 26 26 26 26 27 27 28 28 29 29 30 30 31 31
Wind_Direction
243 243 243 244 245 245 244 244 245 246 246 247 248 249 249 250 250 251 252 252 253 255 256 257 258 259 259 258 258 258 258 258 258 257 257 256 256 255 254 253 253 253 252 252 252 253 253 254 255 257 258 258 259 259 259 259 259 260 261 261 262 263 264 265 266 268 269 270 270 271 271 272 272 271 271 270 269 268 267 267 267 267 267 267 267 267 267
243 244 244 244 244 245 245 244 244 245 246 247 247 248 249 249 250 251 251 252 253 254 255 256 257 258 259 259 259 259 259 258 258 257 257 257 256 256 255 255 255 254 254 254 254 255 255 256 256 258 259 259 260 260 260 260 260 260 261 262 263 263 264 265 266 267 268 268 268 269 269 269 269 269 269 268 267 266 266 266 266 266 266 266 265 265 266
245 245 245 245 245 245 246 246 246 246 247 248 249 249 250 250 251 251 252 252 253 254 255 256 257 257 258 258 259 259 259 259 259 258 258 257 257 257 257 258 258 257 257 257 257 257 258 258 258 258 259 259 260 261 261 262 262 262 263 263 263 264 265 265 266 266 266 266 267 267 267 267 267 267 267 266 265 265 265 265 265 265 265 265 265 265 265
246 246 247 247 247 247 248 249 249 249 249 250 251 251 251 252 252 253 253 254 255 255 255 256 257 258 259 259 260 260 260 260 260 260 260 260 259 259 259 260 260 260 261 261 260 260 260 260 260 259 260 260 260 261 262 263 264 264 265 265 266 266 266 266 267 266 266 266 266 266 265 265 265 264 264 264 264 264 264 264 264 263 264 264 265 265 266
248 247 248 248 249 250 250 251 252 252 253 253 254 254 255 255 255 255 256 256 256 256 256 257 257 258 258 259 259 259 259 259 260 261 261 262 262 262 262 262 262 262 262 262 262 262 262 262 262 262 261 262 262 262 263 264 265 266 266 267 268 268 268 267 267 266 266 266 266 265 265 264 264 263 263 263 264 264 264 263 263 263 264 264 264 265 265
251 250 251 251 252 253 252 252 252 253 254 255 256 257 258 258 258 257 257 256 255 255 254 254 254 254 255 256 256 257 257 258 259 260 261 262 263 263 263 264 264 264 264 264 264 264 264 264 264 264 264 264 264 264 265 265 266 266 267 267 267 267 267 267 266 266 266 266 266 266 266 265 264 263 262 262 262 263 263 263 262 262 263 264 264 264 265
252 253 254 255 256 256 255 254 254 254 254 255 255 256 257 257 257 257 256 256 255 254 253 251 250 251 252 253 254 254 256 257 258 260 261 261 261 262 263 264 265 265 265 265 265 265 265 265 265 266 266 266 265 265 265 266 266 266 266 265 266 266 266 266 266 266 266 266 267 266 266 266 265 264 262 261 260 260 260 261 262 262 262 263 264 264 264
252 253 254 255 256 256 256 257 256 256 255 255 255 255 256 256 257 257 258 258 258 257 256 254 253 253 253 253 253 253 254 255 255 256 257 259 259 260 261 263 264 264 264 265 265 265 265 266 266 266 266 266 266 266 266 266 266 266 265 265 265 265 265 265 265 265 265 265 265 265 265 264 264 263 262 261 259 259 259 260 261 262 262 262 262 262 262
249 250 251 252 253 255 256 257 258 258 258 257 257 257 257 258 259 260 260 260 259 259 259 259 258 257 256 256 256 256 255 254 252 251 252 255 256 256 256 258 260 261 263 264 265 265 266 266 266 267 267 267 268 268 268 268 268 267 267 267 266 266 266 265 265 265 265 265 264 264 264 263 263 263 262 261 260 260 259 259 260 260 260 260 260 260 260
247 247 248 249 251 253 255 256 257 258 260 260 261 261 261 261 261 262 262 261 261 260 260 260 260 260 259 259 259 259 258 257 255 253 252 253 255 255 255 255 256 258 259 261 262 263 265 266 267 268 268 269 269 269 269 269 268 268 268 268 267 267 267 266 266 265 265 265 264 264 264 263 262 262 262 262 261 261 261 260 259 259 259 259 260 260 260
248 248 248 248 249 250 252 255 256 257 258 259 261 262 263 264 264 264 263 264 264 264 264 264 263 263 262 262 262 262 262 262 261 259 258 257 258 258 258 258 258 259 260 260 260 261 262 263 264 266 267 268 268 269 269 269 269 269 268 268 268 268 268 268 267 267 266 266 265 265 264 264 262 261 261 261 261 261 261 260 259 259 259 259 259 260 260
250 250 249 249 248 249 250 251 253 254 255 256 257 259 261 262 263 263 264 264 265 266 267 268 268 268 268 268 267 267 267 267 266 265 265 264 263 263 262 262 262 262 262 262 262 262 262 262 262 263 264 265 266 267 267 268 268 268 268 268 268 268 268 268 268 268 268 268 267 266 266 265 264 263 262 261 260 260 260 260 260 259 259 259 259 260 260
251 251 252 252 251 250 250 250 251 252 254 255 256 257 258 258 259 261 263 264 265 266 267 268 269 270 270 270 271 271 271 270 270 270 269 268 268 267 266 266 265 265 265 264 264 264 263 263 263 263 263 264 264 265 266 266 266 266 266 266 266 266 266 267 267 267 268 268 268 268 267 266 265 264 264 262 261 260 260 260 260 260 259 259 259 260 260
251 252 252 252 252 252 252 252 252 253 254 255 256 257 257 258 259 261 262 263 264 265 265 266 267 267 268 268 269 269 270 271 271 271 271 271 271 270 270 269 269 269 268 267 266 265 264 264 263 263 263 264 264 264 265 265 265 266 266 265 265 265 266 266 266 266 267 267 267 268 268 267 267 266 265 265 264 263 262 261 261 260 260 259 259 260 260
250 251 252 252 251 252 252 253 253 254 255 255 256 257 257 258 260 260 261 262 263 264 265 265 266 266 267 267 268 268 269 270 270 271 271 272 272 272 272 272 271 271 270 270 269 268 267 266 265 265 265 265 265 265 264 264 264 264 264 264 264 264 264 264 264 265 266 266 266 267 267 267 267 267 266 266 265 265 264 263 263 262 262 261 260 261 261
250 251 252 252 252 251 252 252 253 254 255 255 256 256 257 258 259 260 261 262 263 264 264 265 266 266 267 267 268 268 269 269 270 270 271 271 272 272 272 272 272 272 271 271 271 270 269 268 267 266 265 265 265 265 264 264 264 263 263 263 263 263 263 262 262 263 263 264 265 266 266 266 267 267 266 266 266 266 265 264 264 263 262 262 261 260 260
251 251 252 253 253 253 253 253 253 254 255 256 256 257 257 258 259 260 261 262 262 263 264 265 266 266 267 268 269 269 270 270 270 271 271 272 272 273 273 273 274 274 274 274 274 274 273 272 270 268 267 265 265 265 264 264 263 263 263 263 263 262 262 262 261 261 261 262 263 264 265 265 266 267 267 266 266 265 265 265 265 264 263 262 261 260 259
251 252 252 253 253 253 253 254 254 255 255 256 257 257 258 258 259 260 260 261 262 263 263 264 265 266 267 268 268 269 269 270 271 271 272 272 273 273 274 274 275 276 276 276 277 276 276 275 274 272 270 268 267 266 266 265 265 265 264 264 264 263 262 262 261 260 259 259 260 261 262 263 263 264 265 266 266 266 265 265 265 265 264 263 262 261 260
252 253 253 253 254 254 254 254 254 254 255 255 256 257 257 258 258 259 260 260 261 262 262 263 264 265 265 266 267 268 268 269 270 271 271 272 273 274 274 275 275 275 275 276 275 275 275 275 275 274 274 272 271 270 269 269 268 268 267 267 266 266 265 264 263 262 260 259 258 258 259 259 260 261 262 263 264 265 265 265 265 264 264 264 263 262 261
253 254 254 255 255 255 255 256 256 256 256 256 256 256 256 257 257 258 258 259 260 260 261 262 263 264 265 265 267 267 268 269 269 270 270 271 272 272 273 274 274 274 274 274 274 274 274 274 274 274 274 274 273 272 271 271 270 270 269 269 268 267 267 266 265 264 263 261 260 259 258 258 258 259 260 260 261 262 263 264 264 264 264 263 263 263 262
253 254 255 255 255 256 256 256 257 257 257 257 257 257 257 257 257 257 258 259 259 260 261 262 263 264 265 265 266 267 267 268 269 269 269 270 270 271 271 271 272 272 272 272 273 273 274 274 275 275 275 275 274 273 272 271 270 269 268 267 266 266 265 265 264 264 263 262 261 260 259 259 258 258 258 259 259 260 261 261 262 262 263 263 262 262 261
254 254 254 254 255 255 255 256 256 257 257 258 258 259 259 259 259 259 260 260 261 261 262 263 264 264 265 265 266 266 267 268 268 269 270 270 270 270 271 271 271 271 271 272 272 273 273 274 274 275 275 275 275 275 274 273 271 269 268 266 265 264 263 262 262 262 262 261 261 261 260 260 259 259 259 259 259 259 259 259 260 261 261 261 261 262 262
257 257 257 257 257 257 257 257 258 258 258 259 259 260 260 261 261 261 262 262 262 262 263 263 264 264 265 265 266 266 267 268 268 269 270 270 270 270 270 271 271 271 271 272 272 272 272 272 273 273 273 274 275 275 275 274 273 272 270 269 267 266 264 263 262 261 261 261 260 261 260 260 259 259 259 259 259 259 259 259 259 259 260 260 261 261 261
258 258 258 259 259 259 259 259 259 259 260 260 260 260 261 262 262 263 263 264 264 264 264 264 264 265 265 265 266 266 267 267 268 268 268 269 269 269 269 269 269 270 270 270 270 271 271 271 272 272 273 273 273 273 273 273 273 272 271 270 269 268 267 266 265 263 262 261 260 260 260 260 259 259 259 259 260 260 259 259 260 260 260 260 260 260 260
258 258 258 258 259 259 259 259 260 260 260 261 261 262 262 263 263 264 264 265 265 265 265 265 266 266 266 266 266 267 267 267 267 267 267 267 267 267 267 268 268 268 269 269 270 270 271 271 271 271 271 272 272 272 272 273 273 273 272 271 270 269 268 267 267 266 265 264 262 260 259 259 259 258 258 257 258 259 259 259 260 261 261 261 261 261 261
261 261 261 261 261 261 261 261 261 261 262 262 263 263 263 264 264 265 265 266 266 266 266 267 267 267 267 268 268 268 268 268 268 267 267 267 267 267 267 268 268 269 269 270 270 271 271 271 270 271 271 272 273 273 273 273 273 272 271 271 269 268 267 266 265 265 264 263 262 260 258 257 258 258 257 256 256 257 258 258 259 259 260 261 262 262 262
263 264 264 264 264 264 264 264 264 264 264 265 265 265 265 266 266 266 266 267 267 267 267 267 268 268 268 269 269 269 269 268 268 268 268 268 268 268 268 268 269 269 270 270 271 271 271 271 271 272 273 273 274 274 274 273 272 271 270 269 268 266 265 264 264 263 263 262 261 260 258 256 256 256 256 256 256 256 257 257 257 258 259 260 261 262 262
263 264 265 265 266 266 267 267 267 268 268 268 268 268 269 269 269 269 269 269 269 270 270 270 270 270 270 271 271 270 270 269 269 269 269 268 268 268 268 269 269 270 270 270 270 271 271 272 273 274 275 275 275 275 274 274 273 273 272 270 269 267 266 264 263 262 262 262 262 261 260 257 256 255 255 255 255 255 256 256 257 257 258 259 260 260 260
263 263 263 264 265 266 267 267 268 268 269 269 270 271 271 271 271 272 272 272 272 273 273 273 273 273 274 273 273 272 272 271 271 270 269 269 269 269 270 270 270 270 271 271 272 272 273 274 275 276 277 277 277 277 276 276 275 275 274 273 271 270 268 265 263 261 260 260 259 259 259 257 256 256 255 255 255 254 255 255 256 257 257 257 258 258 257
263 263 263 264 265 265 266 266 267 267 268 269 270 270 271 271 272 272 273 273 274 274 274 275 275 275 275 275 274 274 273 272 272 271 270 270 271 271 271 271 271 271 272 272 273 274 275 276 277 278 279 278 278 277 277 276 275 274 273 272 271 270 268 267 264 262 260 258 257 256 256 255 254 254 255 255 255 254 254 255 255 256 256 255 255 255 254
265 265 265 265 265 266 266 266 267 267 268 269 270 270 271 271 272 272 273 274 274 274 275 275 276 276 275 275 274 274 273 272 272 271 271 272 272 272 271 271 271 271 272 273 274 276 276 277 278 279 278 278 277 277 276 275 274 273 272 271 270 270 269 267 265 262 260 258 256 254 253 252 252 252 252 252 252 253 253 253 253 254 253 252 251 251 252
267 267 267 266 267 267 267 267 267 268 268 269 269 270 270 271 272 272 273 274 274 275 275 275 275 275 274 274 273 273 273 272 272 272 272 272 272 271 270 271 271 272 273 274 275 276 277 277 278 278 277 277 277 276 276 275 274 273 272 271 271 270 269 267 265 263 260 258 256 254 253 251 250 250 250 250 250 250 250 250 250 250 249 248 247 247 249
269 268 268 267 267 267 267 267 267 267 267 268 268 269 269 270 272 273 273 274 275 275 275 275 275 275 274 274 273 273 273 272 272 272 272 271 271 270 270 271 272 273 274 274 275 276 277 277 277 277 277 277 277 276 276 276 275 275 275 274 273 271 269 268 266 264 261 258 255 254 253 251 250 248 248 248 248 248 248 248 248 248 247 246 245 246 248
272 271 270 269 268 268 267 268 268 268 268 268 268 268 269 270 272 272 273 274 275 275 276 276 276 276 276 275 274 273 272 272 272 272 271 270 270 270 270 271 272 273 274 275 276 277 277 277 277 277 277 277 277 277 277 277 278 278 278 277 275 273 271 269 266 264 262 260 257 254 253 251 249 247 247 247 247 248 247 247 247 247 246 246 246 246 248
275 274 273 271 270 270 269 269 269 269 269 269 269 270 270 271 272 272 273 274 275 277 277 278 278 277 277 276 275 274 273 272 272 271 271 270 270 270 271 272 273 274 275 276 276 276 276 276 277 277 277 277 278 278 279 279 280 280 279 279 278 276 273 270 267 265 263 261 258 256 253 252 249 247 246 246 246 246 246 246 246 246 246 245 245 245 246
278 276 274 272 272 271 271 271 271 271 271 271 271 271 271 271 272 273 274 275 277 278 278 279 279 278 278 277 276 274 273 272 272 271 271 271 271 272 272 273 274 275 276 276 276 276 276 277 277 278 279 279 280 280 281 281 281 280 279 279 279 278 276 274 270 267 263 261 259 257 254 252 249 247 246 245 244 243 242 243 244 245 245 245 245 244 244
281 278 276 275 274 274 273 273 273 273 272 272 272 272 272 272 273 274 275 277 278 279 279 279 279 279 278 277 276 275 273 272 272 272 272 272 273 273 274 274 275 275 276 276 277 277 277 278 278 279 280 281 281 281 282 282 281 281 280 279 279 279 278 276 274 271 267 263 260 258 255 252 249 247 245 243 242 241 240 241 241 243 244 245 245 245 244
283 281 279 278 277 276 275 275 274 274 274 273 273 273 273 273 274 275 277 278 279 280 280 280 280 279 279 277 276 274 273 272 272 273 273 274 274 275 275 276 275 275 275 275 276 277 277 278 279 280 281 281 282 282 282 281 281 281 281 280 278 277 277 276 275 274 271 267 262 259 256 252 249 246 244 242 241 240 239 239 240 240 241 242 243 242 241
286 284 282 280 279 277 276 276 275 275 274 274 274 274 274 274 275 276 278 279 280 280 280 280 280 280 279 278 275 273 272 272 272 273 275 276 276 277 277 277 276 275 275 275 275 276 277 278 280 280 281 282 283 283 283 281 280 280 281 281 280 278 276 275 274 272 270 268 264 259 255 252 248 245 243 241 239 238 237 236 235 235 236 236 237 236 236
287 286 284 282 281 279 277 276 275 275 275 274 274 274 274 274 275 276 277 279 280 281 281 281 281 280 279 278 276 273 272 272 273 274 276 277 279 279 280 279 278 277 276 275 274 274 276 277 279 280 281 282 284 284 285 283 282 281 282 283 282 279 276 275 274 272 270 267 263 258 254 251 247 244 241 239 237 235 234 232 231 230 231 232 232 233 233
289 288 286 285 283 281 279 277 276 276 275 274 274 274 273 273 274 275 277 279 280 281 282 282 281 281 280 278 276 274 273 273 274 275 277 279 280 282 282 280 279 278 277 275 273 272 273 274 276 278 279 281 282 283 284 285 284 284 285 285 284 281 278 276 274 272 270 267 263 258 254 250 245 241 238 237 235 234 232 231 229 228 228 229 230 231 231
291 289 288 287 285 283 281 279 277 276 275 275 274 274 273 273 273 274 276 278 280 281 282 282 282 281 280 279 277 275 274 274 274 276 278 280 281 282 282 281 279 278 278 276 273 271 270 271 272 274 275 277 279 280 281 282 283 284 285 286 285 283 280 278 275 272 269 265 261 259 256 251 244 239 236 234 232 231 230 229 229 229 229 229 230 231 231
291 290 289 289 287 285 282 280 278 277 276 275 274 274 273 273 273 274 275 277 279 281 282 282 282 281 280 280 279 277 275 275 275 277 278 280 281 281 282 281 279 278 277 276 274 271 270 269 270 270 271 272 273 275 277 278 279 280 282 282 281 279 278 277 276 272 267 262 257 255 254 249 242 238 236 233 230 226 225 225 225 225 226 227 228 228 227
291 290 290 290 289 287 285 282 279 278 276 276 275 274 273 273 273 274 275 276 278 279 281 282 282 281 281 280 280 278 277 276 276 277 278 279 280 280 280 279 278 277 276 275 273 271 269 268 268 269 268 267 268 270 272 273 275 277 279 279 277 274 271 270 270 269 266 261 255 251 249 244 238 234 233 233 230 226 223 222 221 221 221 222 223 224 224
292 291 290 290 289 288 286 283 281 279 277 276 275 274 273 273 273 274 275 276 277 278 279 280 281 281 281 280 280 279 278 277 276 276 277 278 279 279 278 277 276 275 274 273 271 270 268 267 266 267 267 266 265 265 267 269 271 274 276 277 277 273 267 263 261 261 259 257 253 250 247 242 236 232 230 230 229 227 225 223 222 221 220 221 221 223 223
295 293 292 290 289 288 287 285 283 280 278 276 275 274 273 273 273 273 274 275 276 277 278 278 278 279 280 280 280 280 279 278 277 276 276 277 277 278 277 277 276 274 272 270 269 268 267 266 266 266 266 266 265 264 263 263 265 268 271 274 275 273 269 263 258 255 252 250 248 247 245 242 237 233 230 229 229 228 227 226 225 223 222 222 222 222 223
297 296 294 292 290 288 287 286 284 281 278 277 276 275 274 273 272 273 273 274 275 276 277 277 276 276 277 278 279 280 280 279 278 277 276 276 276 277 277 277 276 275 273 270 268 266 265 265 265 265 265 265 264 263 261 260 259 260 263 266 269 270 269 265 259 254 249 246 244 243 242 240 238 235 233 231 230 229 229 229 229 228 227 226 225 225 225
298 297 296 294 291 288 287 286 284 282 279 277 276 275 274 273 272 272 272 273 274 275 276 276 276 276 275 276 277 278 279 279 279 278 277 276 276 276 276 276 276 276 274 272 269 265 262 261 261 261 262 263 262 262 261 259 258 256 256 257 260 262 264 263 261 256 250 246 243 241 239 238 237 236 234 233 232 231 230 230 231 231 231 230 230 230 229
297 297 297 295 292 289 287 285 284 283 281 278 276 276 274 273 272 272 272 272 272 273 273 274 275 275 276 276 276 276 277 277 277 277 276 275 275 275 276 276 276 276 275 274 272 269 264 260 258 257 258 259 260 261 261 260 258 256 255 254 254 255 256 257 257 256 252 248 245 241 239 237 236 235 235 234 234 233 233 232 232 233 233 233 234 234 234
294 295 295 295 293 291 288 285 284 283 281 280 278 277 276 274 273 272 271 271 271 271 272 272 273 274 275 275 276 276 276 277 277 276 276 275 274 274 275 275 276 276 275 274 273 271 269 266 262 259 257 256 257 259 260 260 259 258 256 255 254 253 252 252 252 253 252 250 247 245 242 239 237 236 235 235 235 235 235 235 234 234 235 235 236 236 237
292 292 293 293 292 291 289 286 283 281 281 280 279 278 276 275 274 272 272 272 272 271 271 272 272 273 274 274 275 276 276 276 276 277 276 275 274 274 273 273 274 274 274 274 274 273 271 270 268 265 262 259 257 257 258 258 259 259 258 257 256 255 254 252 251 250 250 250 249 247 245 243 241 239 238 237 237 237 237 237 237 237 237 237 237 238 239
291 290 290 290 290 290 289 286 283 281 280 279 278 277 276 275 274 273 273 274 273 272 271 272 272 273 273 274 275 275 275 276 275 275 274 274 274 273 273 273 273 273 273 274 273 273 272 271 271 269 267 265 263 261 260 260 260 260 259 259 258 257 257 255 254 252 251 250 249 249 248 247 246 244 242 241 240 240 240 240 240 240 240 239 239 239 239
Height
10426 10429 10431 10432 10432 10434 10438 10440 10442 10443 10445 10447 10449 10451 10454 10455 10457 10458 10459 10460 10461 10461 10462 10463 10463 10464 10465 10467 10468 10469 10470 10471 10472 10473 10473 10474 10475 10477 10478 10479 10480 10481 10482 10483 10484 10486 10487 10488 10488 10488 10489 10489 10490 10491 10492 10493 10493 10493 10494 10495 10496 10496 10496 10496 10495 10494 10493 10492 10492 10491 10491 10492 10492 10492 10492 10492 10492 10492 10493 10493 10493 10494 10494 10494 10493 10493 10494
10420 10421 10423 10424 10425 10427 10429 10432 10435 10436 10438 10440 10442 10444 10446 10447 10449 10450 10451 10452 10453 10454 10455 10456 10456 10456 10457 10458 10459 10461 10462 10463 10464 10465 10465 10466 10467 10468 10469 10470 10472 10473 10474 10475 10477 10478 10479 10480 10480 10480 10480 10480 10480 10481 10482 10483 10484 10485 10486 10486 10487 10488 10488 10488 10487 10487 10485 10484 10483 10483 10483 10483 10483 10484 10484 10484 10484 10484 10485 10486 10486 10486 10486 10486 10486 10486 10487
10412 10414 10415 10416 10417 10419 10421 10424 10428 10430 10432 10434 10435 10437 10438 10440 10442 10443 10444 10445 10446 10448 10449 10448 10448 10448 10449 10450 10451 10452 10453 10454 10455 10456 10457 10458 10459 10460 10461 10462 10463 10465 10466 10467 10468 10469 10470 10471 10471 10471 10470 10470 10470 10470 10471 10472 10474 10475 10477 10477 10478 10479 10480 10479 10479 10478 10477 10476 10475 10475 10475 10476 10476 10476 10476 10476 10477 10477 10478 10479 10479 10478 10478 10478 10478 10478 10479
10405 10407 10407 10408 10410 10412 10414 10418 10421 10423 10425 10427 10428 10429 10431 10433 10434 10436 10437 10437 10438 10440 10441 10441 10441 10441 10441 10442 10443 10444 10445 10445 10446 10447 10449 10450 10451 10452 10454 10454 10455 10456 10457 10458 10459 10459 10460 10460 10460 10460 10460 10460 10461 10461 10462 10463 10464 10465 10466 10468 10469 10470 10470 10470 10469 10468 10467 10467 10466 10466 10467 10468 10469 10469 10469 10469 10470 10471 10471 10472 10472 10471 10471 10472 10471 10470 10471
10398 10399 10399 10400 10403 10406 10409 10412 10414 10416 10418 10419 10420 10421 10423 10425 10426 10427 10429 10429 10430 10432 10433 10433 10433 10433 10433 10433 10434 10435 10436 10437 10438 10439 10440 10441 10442 10444 10445 10446 10447 10447 10448 10448 10448 10449 10449 10449 10449 10449 10450 10451 10452 10452 10453 10454 10455 10456 10457 10458 10459 10459 10460 10459 10458 10457 10456 10456 10456 10456 10457 10459 10460 10461 10462 10463 10464 10464 10464 10464 10464 10465 10465 10464 10462 10462 10462
10391 10391 10392 10394 10397 10401 10403 10405 10406 10408 10410 10411 10412 10413 10414 10416 10417 10418 10419 10420 10421 10423 10424 10424 10424 10424 10424 10425 10426 10427 10428 10429 10430 10432 10432 10433 10433 10434 10435 10436 10437 10438 10438 10438 10439 10439 10439 10438 10438 10439 10440 10441 10442 10443 10444 10444 10445 10446 10447 10448 10448 10448 10448 10448 10447 10446 10445 10445 10445 10446 10447 10448 10450 10451 10453 10456 10457 10457 10456 10454 10454 10457 10457 10453 10453 10454 10454
10384 10386 10387 10389 10392 10394 10394 10396 10399 10401 10402 10403 10404 10404 10404 10405 10406 10407 10409 10410 10412 10413 10414 10414 10415 10415 10417 10418 10418 10418 10420 10422 10424 10426 10425 10425 10425 10425 10426 10427 10428 10428 10429 10429 10429 10428 10428 10428 10428 10428 10428 10429 10430 10431 10433 10433 10434 10435 10436 10437 10437 10437 10437 10437 10436 10436 10436 10435 10435 10436 10436 10438 10439 10440 10442 10445 10447 10448 10447 10444 10443 10447 10447 10444 10444 10446 10446
10378 10380 10382 10384 10385 10385 10386 10389 10392 10393 10394 10394 10395 10395 10395 10396 10398 10399 10401 10402 10404 10404 10405 10405 10406 10408 10409 10410 10410 10411 10413 10416 10419 10420 10418 10416 10417 10418 10418 10419 10419 10419 10419 10419 10419 10418 10418 10418 10418 10417 10417 10417 10417 10419 10421 10422 10422 10423 10425 10425 10426 10426 10426 10425 10425 10425 10425 10425 10425 10425 10426 10427 10428 10429 10431 10433 10435 10436 10436 10435 10435 10436 10436 10435 10435 10436 10436
10371 10373 10374 10376 10377 10378 10381 10382 10383 10383 10384 10385 10386 10387 10388 10389 10391 10392 10393 10394 10395 10395 10396 10397 10398 10399 10401 10401 10402 10403 10405 10408 10411 10413 10411 10409 10409 10410 10410 10410 10410 10410 10410 10410 10409 10409 10408 10408 10408 10407 10407 10407 10407 10408 10409 10410 10411 10412 10413 10414 10414 10415 10414 10414 10414 10414 10414 10415 10415 10414 10415 10416 10417 10418 10420 10422 10423 10424 10425 10426 10426 10426 10426 10425 10425 10426 10426
10362 10364 10366 10369 10371 10373 10373 10374 10374 10375 10375 10376 10377 10378 10379 10382 10384 10384 10384 10385 10385 10386 10387 10388 10389 10390 10392 10393 10393 10394 10396 10398 10400 10402 10402 10401 10401 10401 10401 10402 10402 10402 10401 10401 10401 10400 10399 10399 10399 10398 10398 10398 10398 10398 10399 10399 10400 10401 10402 10403 10404 10404 10404 10403 10403 10403 10404 10404 10404 10404 10405 10406 10407 10408 10409 10411 10412 10413 10414 10415 10416 10416 10415 10415 10415 10416 10416
10353 10356 10358 10361 10364 10366 10366 10366 10367 10367 10367 10368 10368 10369 10372 10374 10374 10373 10374 10375 10376 10377 10378 10379 10380 10381 10382 10383 10384 10385 10386 10388 10389 10390 10391 10392 10392 10392 10392 10393 10393 10393 10392 10392 10392 10391 10391 10391 10390 10390 10389 10388 10388 10388 10389 10389 10390 10391 10393 10394 10394 10394 10394 10393 10393 10393 10393 10394 10394 10394 10395 10396 10397 10398 10400 10401 10402 10402 10403 10404 10405 10405 10405 10406 10406 10407 10407
10345 10346 10348 10352 10356 10359 10359 10358 10358 10358 10358 10359 10360 10363 10366 10366 10363 10362 10364 10366 10366 10367 10368 10369 10369 10370 10372 10373 10374 10375 10376 10377 10377 10378 10379 10380 10381 10381 10382 10382 10382 10383 10383 10383 10382 10382 10382 10382 10382 10382 10381 10380 10379 10379 10379 10379 10380 10381 10383 10384 10384 10385 10385 10384 10383 10382 10383 10383 10383 10384 10385 10386 10387 10388 10390 10391 10392 10393 10394 10394 10395 10395 10396 10397 10397 10397 10398
10336 10337 10339 10343 10347 10351 10352 10351 10350 10349 10349 10350 10353 10356 10357 10355 10354 10354 10356 10357 10358 10359 10360 10360 10361 10361 10362 10363 10364 10364 10365 10365 10366 10366 10367 10367 10368 10369 10370 10371 10371 10372 10372 10372 10372 10372 10372 10372 10372 10372 10372 10371 10371 10370 10370 10369 10369 10371 10373 10374 10374 10375 10375 10375 10373 10372 10372 10372 10372 10373 10374 10375 10376 10377 10379 10380 10381 10383 10384 10385 10385 10386 10387 10388 10388 10388 10388
10327 10328 10330 10334 10338 10342 10343 10342 10342 10341 10341 10343 10346 10347 10346 10346 10346 10347 10348 10349 10349 10350 10351 10352 10352 10352 10353 10353 10354 10354 10354 10355 10355 10355 10355 10355 10356 10357 10357 10359 10359 10360 10360 10360 10360 10360 10361 10361 10361 10361 10361 10361 10361 10361 10360 10358 10358 10360 10362 10362 10363 10364 10364 10364 10364 10362 10362 10362 10362 10362 10362 10363 10365 10366 10368 10369 10370 10372 10374 10375 10375 10376 10377 10379 10379 10379 10380
10318 10319 10321 10324 10329 10332 10332 10332 10332 10333 10334 10336 10338 10338 10338 10338 10338 10339 10339 10340 10340 10340 10341 10341 10342 10342 10343 10343 10344 10344 10344 10344 10344 10344 10344 10344 10344 10344 10345 10346 10346 10346 10346 10346 10346 10347 10348 10349 10349 10350 10351 10351 10350 10349 10349 10347 10347 10349 10350 10351 10352 10353 10353 10353 10353 10352 10351 10351 10351 10351 10351 10352 10353 10355 10357 10358 10359 10360 10362 10364 10365 10366 10367 10368 10370 10370 10371
10309 10310 10311 10315 10319 10321 10321 10322 10323 10324 10325 10327 10328 10328 10329 10329 10329 10330 10330 10330 10331 10331 10331 10331 10331 10331 10331 10332 10333 10334 10334 10334 10334 10333 10333 10333 10333 10333 10333 10333 10333 10333 10333 10333 10333 10333 10334 10335 10337 10338 10339 10340 10339 10337 10336 10334 10335 10336 10337 10338 10339 10340 10341 10342 10342 10342 10341 10340 10340 10340 10340 10340 10341 10343 10345 10347 10348 10349 10351 10353 10354 10355 10355 10357 10359 10361 10361
10299 10300 10302 10305 10308 10310 10311 10312 10314 10314 10315 10317 10318 10318 10319 10320 10320 10321 10321 10321 10321 10321 10320 10320 10320 10320 10321 10321 10322 10322 10322 10322 10322 10322 10321 10321 10320 10320 10320 10319 10319 10319 10320 10320 10320 10320 10319 10320 10322 10323 10324 10326 10326 10325 10322 10321 10322 10324 10325 10326 10327 10328 10328 10329 10330 10330 10331 10331 10329 10329 10328 10329 10329 10330 10331 10333 10335 10337 10339 10341 10342 10343 10345 10346 10348 10350 10351
10289 10291 10292 10294 10297 10299 10301 10302 10304 10305 10306 10307 10307 10308 10309 10310 10311 10311 10311 10311 10310 10310 10310 10310 10310 10310 10310 10311 10311 10311 10311 10310 10310 10309 10309 10309 10308 10308 10308 10307 10307 10307 10307 10307 10307 10306 10305 10303 10303 10305 10306 10309 10311 10311 10310 10309 10310 10312 10313 10314 10315 10315 10315 10315 10316 10317 10319 10319 10318 10318 10318 10317 10318 10318 10318 10320 10321 10324 10327 10329 10329 10330 10333 10333 10334 10337 10339
10280 10281 10282 10285 10287 10289 10290 10292 10293 10294 10295 10296 10297 10298 10298 10299 10300 10300 10300 10300 10299 10299 10299 10299 10299 10299 10299 10300 10300 10299 10299 10299 10299 10298 10298 10298 10297 10296 10296 10297 10296 10296 10295 10294 10293 10292 10291 10289 10288 10289 10290 10292 10295 10297 10297 10297 10297 10299 10300 10301 10301 10301 10301 10300 10300 10301 10303 10304 10305 10305 10305 10305 10306 10306 10307 10308 10309 10310 10313 10315 10315 10316 10318 10319 10321 10324 10326
10271 10272 10273 10276 10277 10278 10280 10281 10282 10283 10284 10285 10286 10287 10287 10288 10288 10288 10288 10288 10288 10288 10288 10288 10288 10289 10289 10289 10289 10288 10288 10288 10288 10288 10288 10288 10287 10286 10285 10285 10285 10283 10282 10281 10279 10278 10278 10276 10276 10276 10277 10277 10279 10282 10283 10284 10284 10285 10287 10286 10286 10286 10286 10284 10284 10284 10284 10286 10287 10289 10290 10292 10292 10293 10294 10296 10298 10298 10299 10301 10301 10301 10304 10306 10307 10309 10312
10262 10263 10265 10266 10267 10268 10269 10270 10271 10272 10272 10273 10274 10275 10275 10275 10276 10276 10277 10277 10277 10277 10278 10278 10278 10278 10279 10279 10279 10277 10276 10276 10276 10277 10277 10277 10276 10275 10274 10273 10273 10271 10270 10268 10267 10266 10265 10265 10264 10264 10263 10263 10265 10266 10268 10269 10270 10271 10272 10271 10271 10271 10270 10268 10268 10267 10267 10268 10270 10272 10274 10276 10278 10279 10280 10282 10285 10286 10286 10287 10287 10288 10290 10292 10293 10294 10297
10252 10253 10255 10256 10257 10258 10259 10259 10260 10261 10261 10262 10262 10263 10263 10264 10264 10265 10266 10267 10267 10268 10268 10268 10268 10267 10267 10267 10267 10265 10264 10264 10264 10265 10264 10264 10264 10263 10262 10260 10259 10258 10257 10257 10256 10255 10254 10253 10253 10252 10250 10250 10250 10251 10252 10253 10254 10256 10257 10256 10256 10256 10254 10253 10253 10252 10252 10254 10256 10257 10260 10262 10263 10264 10266 10268 10271 10272 10272 10273 10274 10274 10276 10278 10279 10281 10284
10243 10244 10245 10246 10247 10248 10249 10250 10251 10251 10252 10252 10252 10252 10252 10253 10253 10254 10255 10256 10257 10257 10257 10257 10257 10256 10255 10255 10254 10254 10253 10253 10253 10253 10253 10252 10251 10249 10248 10247 10246 10245 10244 10244 10244 10244 10243 10241 10240 10239 10239 10238 10239 10239 10239 10239 10240 10241 10242 10242 10242 10241 10240 10240 10240 10239 10240 10243 10244 10245 10247 10249 10251 10252 10253 10255 10256 10256 10258 10260 10261 10261 10263 10266 10267 10269 10273
10235 10236 10236 10237 10238 10239 10240 10240 10241 10241 10241 10242 10242 10242 10242 10243 10243 10243 10244 10244 10245 10245 10245 10245 10245 10244 10243 10243 10243 10242 10242 10242 10242 10242 10242 10241 10239 10237 10236 10235 10234 10233 10233 10232 10232 10232 10231 10230 10229 10229 10228 10228 10228 10227 10227 10227 10227 10228 10229 10230 10230 10229 10228 10228 10228 10227 10229 10231 10233 10235 10236 10237 10238 10241 10243 10243 10242 10242 10246 10249 10248 10248 10251 10254 10255 10258 10262
10227 10227 10228 10229 10229 10230 10231 10231 10232 10232 10232 10232 10233 10233 10233 10233 10233 10233 10234 10234 10234 10234 10234 10234 10233 10232 10232 10232 10232 10232 10231 10231 10231 10231 10230 10229 10228 10226 10226 10225 10224 10224 10223 10222 10222 10222 10221 10221 10219 10218 10217 10216 10217 10217 10217 10217 10217 10217 10218 10219 10219 10218 10218 10217 10217 10217 10218 10218 10221 10224 10225 10226 10226 10228 10231 10232 10230 10230 10234 10238 10237 10236 10239 10241 10243 10246 10252
10219 10219 10220 10221 10221 10222 10222 10223 10223 10223 10223 10224 10224 10224 10224 10224 10224 10224 10224 10224 10224 10224 10224 10224 10223 10222 10221 10221 10222 10222 10221 10221 10220 10220 10219 10218 10217 10217 10216 10216 10215 10214 10214 10213 10213 10212 10211 10210 10208 10207 10207 10207 10207 10208 10208 10207 10207 10207 10207 10207 10208 10207 10207 10206 10206 10206 10206 10206 10208 10211 10214 10215 10215 10215 10218 10220 10220 10219 10223 10227 10227 10226 10226 10230 10232 10236 10242
10212 10212 10212 10213 10213 10213 10213 10214 10214 10215 10215 10215 10215 10215 10215 10215 10215 10215 10215 10215 10215 10214 10214 10214 10214 10213 10212 10212 10212 10212 10211 10210 10209 10209 10208 10208 10208 10208 10207 10207 10206 10205 10205 10204 10203 10202 10201 10200 10199 10198 10198 10199 10199 10199 10198 10197 10197 10196 10196 10196 10196 10196 10196 10196 10196 10196 10196 10196 10197 10200 10202 10204 10204 10204 10205 10208 10210 10211 10212 10214 10216 10216 10217 10221 10224 10227 10232
10206 10206 10206 10206 10206 10206 10206 10206 10206 10207 10207 10207 10207 10207 10207 10207 10206 10206 10206 10206 10205 10205 10205 10205 10204 10204 10203 10203 10203 10202 10201 10200 10200 10200 10199 10199 10198 10198 10198 10198 10197 10196 10196 10195 10193 10192 10191 10191 10190 10190 10190 10190 10190 10189 10188 10187 10186 10185 10185 10185 10185 10185 10186 10186 10187 10187 10187 10188 10189 10190 10192 10194 10194 10194 10196 10197 10199 10201 10202 10203 10205 10207 10210 10213 10216 10219 10222
10201 10201 10200 10200 10200 10200 10200 10200 10200 10199 10199 10199 10199 10199 10199 10198 10198 10197 10197 10197 10197 10197 10196 10196 10195 10195 10195 10194 10193 10191 10190 10190 10190 10190 10190 10189 10189 10189 10190 10190 10189 10187 10186 10185 10184 10184 10183 10182 10182 10182 10182 10181 10180 10179 10178 10178 10177 10176 10175 10174 10174 10175 10175 10176 10177 10177 10178 10179 10180 10180 10182 10184 10185 10185 10187 10188 10190 10192 10193 10193 10195 10199 10202 10205 10208 10211 10212
10195 10195 10194 10194 10194 10194 10194 10194 10194 10193 10193 10193 10193 10193 10192 10191 10191 10190 10190 10189 10189 10189 10189 10188 10187 10187 10186 10185 10184 10183 10182 10181 10181 10180 10180 10180 10181 10182 10182 10181 10180 10179 10178 10177 10176 10176 10175 10174 10174 10174 10174 10172 10171 10170 10169 10169 10167 10166 10165 10165 10164 10165 10165 10166 10167 10168 10168 10169 10170 10171 10172 10174 10175 10176 10178 10179 10181 10183 10184 10185 10187 10190 10194 10198 10201 10202 10201
10188 10189 10189 10188 10188 10188 10188 10188 10187 10187 10187 10187 10187 10186 10186 10185 10184 10184 10183 10183 10183 10182 10182 10181 10180 10179 10179 10178 10176 10175 10174 10173 10172 10172 10173 10174 10174 10174 10174 10172 10172 10171 10170 10169 10169 10168 10168 10167 10167 10166 10165 10164 10163 10162 10161 10160 10159 10158 10157 10156 10156 10157 10157 10158 10159 10159 10160 10161 10162 10162 10163 10164 10166 10168 10169 10170 10172 10174 10175 10177 10179 10181 10185 10189 10192 10192 10191
10182 10182 10183 10182 10182 10182 10182 10181 10181 10181 10181 10181 10181 10180 10179 10179 10178 10178 10177 10177 10176 10176 10175 10175 10173 10172 10172 10170 10169 10167 10166 10166 10165 10166 10166 10167 10167 10167 10166 10165 10164 10164 10163 10162 10162 10161 10160 10160 10160 10159 10157 10156 10155 10154 10153 10152 10151 10150 10150 10150 10150 10150 10150 10150 10150 10151 10152 10153 10154 10154 10154 10156 10159 10160 10161 10162 10163 10164 10166 10168 10170 10172 10176 10179 10181 10182 10181
10176 10176 10176 10176 10176 10176 10175 10175 10175 10175 10175 10175 10175 10174 10173 10173 10172 10171 10171 10170 10170 10170 10169 10168 10167 10166 10165 10164 10162 10161 10160 10159 10159 10159 10160 10160 10160 10160 10159 10158 10158 10157 10156 10156 10155 10155 10154 10153 10152 10151 10150 10149 10148 10147 10146 10145 10144 10144 10143 10143 10143 10143 10143 10143 10144 10144 10144 10145 10146 10146 10147 10149 10151 10153 10153 10153 10154 10155 10158 10160 10162 10164 10167 10169 10171 10173 10174
10171 10170 10170 10170 10169 10169 10169 10169 10169 10169 10169 10169 10168 10167 10167 10167 10166 10165 10165 10164 10164 10163 10162 10161 10160 10159 10158 10157 10156 10154 10154 10153 10153 10153 10153 10153 10154 10154 10153 10152 10151 10150 10149 10149 10149 10148 10147 10146 10145 10144 10144 10143 10142 10141 10140 10140 10139 10138 10138 10137 10137 10137 10137 10137 10137 10138 10138 10139 10139 10140 10141 10142 10144 10146 10146 10146 10147 10149 10152 10153 10154 10156 10159 10161 10164 10167 10169
10165 10165 10164 10163 10163 10163 10162 10162 10162 10162 10162 10162 10161 10161 10161 10161 10160 10159 10159 10158 10158 10157 10156 10155 10154 10153 10152 10151 10149 10148 10148 10147 10147 10147 10147 10147 10148 10148 10147 10146 10146 10144 10143 10143 10143 10142 10140 10140 10139 10138 10138 10137 10136 10136 10135 10134 10134 10133 10132 10132 10131 10131 10131 10131 10132 10132 10132 10132 10133 10134 10135 10136 10138 10139 10140 10141 10142 10144 10145 10146 10147 10149 10152 10154 10158 10161 10164
10159 10159 10158 10157 10157 10157 10156 10156 10156 10156 10156 10156 10155 10155 10154 10154 10153 10153 10152 10152 10152 10151 10150 10149 10148 10147 10145 10144 10143 10143 10142 10142 10141 10141 10141 10142 10142 10141 10141 10141 10140 10139 10138 10137 10136 10136 10135 10134 10133 10133 10132 10132 10131 10131 10130 10130 10129 10128 10127 10127 10126 10126 10126 10126 10126 10126 10127 10127 10127 10128 10129 10130 10132 10133 10134 10135 10136 10138 10139 10139 10141 10143 10145 10148 10151 10155 10158
10153 10152 10152 10151 10151 10151 10150 10150 10149 10149 10149 10149 10149 10148 10148 10148 10147 10147 10146 10146 10146 10145 10144 10143 10142 10141 10140 10139 10138 10137 10137 10136 10136 10136 10136 10136 10136 10136 10135 10135 10135 10134 10133 10132 10131 10130 10129 10129 10128 10128 10127 10127 10126 10126 10126 10125 10124 10123 10123 10123 10122 10122 10121 10121 10121 10121 10122 10122 10122 10123 10124 10125 10126 10127 10128 10130 10131 10132 10133 10134 10136 10138 10140 10143 10146 10150 10153
10147 10146 10146 10145 10145 10145 10144 10144 10144 10144 10143 10143 10143 10142 10142 10142 10141 10141 10140 10140 10140 10139 10138 10137 10136 10135 10134 10133 10133 10132 10132 10131 10131 10130 10130 10130 10130 10130 10130 10130 10129 10128 10128 10127 10126 10125 10124 10124 10123 10123 10123 10122 10122 10122 10121 10121 10120 10119 10118 10118 10118 10118 10117 10117 10117 10117 10117 10117 10118 10118 10119 10120 10121 10122 10123 10124 10126 10127 10129 10130 10132 10134 10137 10139 10142 10145 10148
10142 10141 10141 10140 10140 10139 10139 10139 10138 10138 10138 10137 10137 10136 10136 10136 10135 10135 10135 10134 10134 10133 10133 10132 10131 10130 10129 10128 10128 10127 10127 10126 10126 10125 10125 10124 10124 10124 10124 10124 10124 10123 10123 10123 10122 10120 10120 10119 10119 10119 10118 10118 10117 10117 10117 10117 10116 10116 10115 10114 10114 10114 10114 10113 10113 10113 10113 10113 10114 10114 10115 10116 10116 10117 10118 10120 10121 10122 10124 10126 10128 10130 10132 10134 10137 10139 10142
10138 10136 10136 10135 10135 10134 10134 10133 10133 10132 10132 10132 10131 10131 10131 10131 10130 10130 10129 10129 10129 10128 10127 10127 10126 10125 10124 10124 10123 10122 10122 10121 10121 10121 10120 10120 10119 10119 10119 10119 10119 10119 10118 10118 10118 10117 10116 10115 10115 10115 10114 10114 10113 10113 10113 10112 10112 10112 10112 10111 10110 10110 10110 10110 10110 10110 10110 10110 10110 10111 10111 10112 10113 10114 10115 10116 10117 10118 10120 10121 10123 10125 10127 10130 10132 10134 10137
10133 10132 10131 10130 10130 10129 10129 10128 10128 10127 10127 10126 10126 10126 10126 10125 10125 10125 10125 10124 10123 10123 10122 10122 10121 10120 10120 10119 10118 10118 10117 10117 10116 10116 10116 10115 10115 10115 10115 10114 10114 10114 10114 10114 10114 10113 10113 10112 10111 10111 10111 10110 10110 10109 10109 10109 10108 10109 10109 10108 10107 10107 10107 10107 10107 10107 10107 10107 10108 10108 10109 10109 10110 10111 10111 10112 10114 10115 10116 10118 10120 10122 10123 10126 10128 10130 10133
10128 10127 10126 10126 10125 10124 10124 10123 10123 10122 10122 10121 10121 10121 10121 10120 10120 10120 10120 10119 10119 10118 10117 10117 10116 10116 10115 10115 10114 10113 10113 10113 10112 10112 10112 10111 10111 10110 10110 10110 10110 10109 10109 10109 10109 10109 10109 10109 10108 10108 10107 10107 10106 10106 10106 10105 10105 10105 10106 10106 10105 10104 10104 10104 10104 10105 10105 10105 10105 10106 10106 10106 10107 10108 10109 10110 10111 10112 10114 10115 10117 10119 10121 10123 10125 10128 10130
10124 10123 10122 10121 10120 10120 10119 10118 10118 10117 10117 10116 10116 10116 10116 10116 10115 10115 10115 10115 10114 10114 10113 10112 10112 10111 10111 10110 10110 10109 10109 10108 10108 10108 10107 10107 10107 10106 10106 10105 10105 10105 10105 10105 10105 10105 10105 10105 10105 10105 10104 10104 10103 10103 10103 10103 10102 10102 10103 10103 10103 10102 10102 10102 10102 10102 10102 10103 10103 10104 10104 10104 10105 10106 10107 10108 10109 10110 10111 10113 10114 10116 10118 10120 10122 10125 10127
10119 10118 10117 10117 10116 10115 10114 10113 10113 10112 10112 10112 10112 10111 10111 10111 10111 10110 10110 10110 10110 10109 10109 10108 10107 10107 10106 10106 10105 10105 10104 10104 10104 10103 10103 10103 10102 10102 10102 10101 10101 10101 10101 10101 10101 10100 10100 10101 10101 10101 10101 10100 10100 10100 10100 10100 10099 10099 10099 10100 10100 10101 10100 10100 10100 10100 10100 10100 10101 10102 10102 10103 10103 10104 10105 10106 10107 10108 10109 10110 10112 10113 10115 10117 10119 10121 10123
10115 10114 10113 10112 10111 10111 10110 10109 10108 10108 10107 10107 10107 10106 10106 10106 10106 10106 10105 10105 10105 10105 10105 10104 10103 10102 10102 10102 10101 10101 10100 10100 10099 10099 10099 10099 10098 10098 10098 10097 10097 10097 10097 10097 10097 10097 10097 10096 10097 10097 10097 10097 10097 10097 10097 10096 10096 10096 10096 10097 10097 10098 10098 10098 10098 10098 10098 10098 10099 10099 10100 10101 10101 10102 10103 10104 10105 10106 10107 10108 10109 10111 10112 10114 10116 10118 10119
10111 10109 10108 10107 10107 10106 10105 10104 10103 10103 10102 10102 10101 10101 10101 10101 10101 10101 10100 10100 10100 10100 10100 10100 10099 10099 10098 10097 10097 10096 10096 10096 10095 10095 10095 10094 10094 10094 10093 10093 10093 10093 10093 10093 10093 10093 10093 10093 10093 10093 10093 10093 10093 10093 10093 10094 10093 10093 10093 10093 10094 10094 10095 10096 10096 10096 10096 10097 10097 10097 10098 10099 10099 10100 10101 10102 10103 10104 10105 10106 10107 10108 10110 10111 10113 10114 10116
10106 10105 10103 10102 10102 10101 10100 10099 10099 10098 10097 10097 10096 10096 10096 10096 10096 10096 10095 10095 10095 10095 10095 10095 10095 10095 10094 10093 10093 10092 10092 10091 10091 10091 10091 10090 10090 10089 10089 10089 10089 10089 10089 10090 10090 10090 10090 10089 10089 10089 10089 10089 10090 10090 10090 10091 10091 10091 10091 10091 10091 10091 10092 10093 10093 10094 10094 10095 10095 10095 10096 10096 10097 10098 10099 10100 10100 10101 10102 10103 10105 10106 10107 10108 10110 10111 10113
10101 10100 10099 10098 10097 10096 10095 10095 10094 10093 10093 10092 10091 10091 10091 10091 10091 10091 10091 10090 10090 10091 10091 10090 10090 10090 10090 10089 10089 10089 10088 10088 10087 10087 10086 10086 10086 10085 10085 10085 10085 10085 10085 10085 10086 10086 10086 10086 10086 10085 10085 10085 10086 10086 10087 10087 10088 10088 10088 10088 10088 10089 10089 10089 10090 10091 10092 10092 10093 10093 10094 10094 10095 10096 10096 10097 10098 10099 10100 10101 10102 10103 10104 10106 10107 10108 10109
10096 10095 10094 10093 10092 10091 10090 10090 10089 10088 10088 10087 10087 10086 10086 10086 10086 10086 10086 10086 10086 10086 10086 10086 10085 10085 10085 10085 10085 10084 10084 10084 10083 10083 10082 10082 10081 10081 10081 10081 10080 10080 10081 10081 10081 10082 10082 10082 10082 10082 10081 10081 10081 10082 10082 10083 10084 10085 10085 10086 10086 10086 10086 10086 10087 10088 10088 10089 10090 10090 10091 10092 10092 10093 10094 10094 10095 10096 10097 10098 10099 10100 10101 10102 10104 10105 10106
10093 10091 10089 10088 10087 10086 10086 10085 10084 10084 10083 10082 10082 10081 10081 10081 10081 10081 10081 10081 10081 10081 10081 10081 10081 10080 10080 10080 10080 10080 10080 10080 10079 10079 10079 10078 10078 10077 10077 10076 10076 10076 10076 10076 10077 10077 10077 10077 10077 10078 10078 10077 10077 10078 10078 10079 10080 10080 10081 10082 10082 10083 10083 10084 10084 10084 10085 10086 10086 10087 10088 10089 10089 10090 10091 10091 10092 10093 10094 10094 10095 10096 10098 10099 10100 10101 10102
10089 10087 10085 10084 10082 10082 10081 10080 10080 10079 10078 10077 10077 10077 10076 10076 10077 10076 10076 10076 10077 10077 10076 10076 10076 10076 10076 10076 10076 10076 10076 10075 10075 10075 10075 10074 10074 10073 10073 10072 10072 10072 10072 10072 10072 10072 10072 10073 10073 10073 10073 10074 10074 10074 10074 10074 10075 10076 10077 10077 10078 10079 10080 10080 10081 10081 10081 10082 10083 10083 10084 10085 10086 10087 10087 10088 10089 10089 10090 10091 10092 10093 10094 10095 10096 10097 10098
10084 10083 10081 10079 10078 10077 10076 10076 10075 10074 10074 10073 10072 10072 10072 10072 10072 10071 10071 10072 10072 10072 10072 10071 10071 10071 10071 10071 10071 10071 10071 10071 10071 10071 10070 10070 10070 10069 10068 10068 10068 10068 10068 10068 10068 10067 10068 10068 10068 10068 10069 10069 10070 10070 10070 10070 10070 10071 10072 10073 10073 10074 10075 10076 10077 10077 10078 10078 10079 10079 10080 10081 10082 10082 10083 10084 10085 10086 10087 10087 10088 10089 10090 10090 10091 10092 10093